Terminal Aerodrome Forecast
Issued by NWS

Home | Current Version | Previous Version | Text Only | Print | Product List | Glossary On
Versions: 1 2 3 4 5 6 7 8 9 10 11 12
000
FTUS43 KIWX 111700
TAFSBN
TAF
KSBN 111739Z 1118/1218 19007KT P6SM SCT040
     FM120200 17004KT P6SM BKN150
     FM121500 19007KT P6SM VCSH BKN040=

USA.gov is the U.S. government's official web portal to all federal, state and local government web resources and services.